Regional Weather Roundup
Issued by NWS

Home | Current Version | Previous Version | Graphics & Text | Print | Product List | Glossary On
Versions: 1 2 3 4 5 6 7 8 9 10 11 12 13 14 15 16 17 18 19 20 21 22 23 24 25 26 27 28 29 30 31 32 33 34 35 36 37 38 39 40 41 42 43 44 45 46 47 48 49 50
000
ASUS43 KLOT 011200
RWRIL

ILLINOIS REGIONAL WEATHER ROUNDUP
NATIONAL WEATHER SERVICE CHICAGO/ROMEOVILLE IL
700 AM CDT FRI AUG 01 2014

NOTE: "FAIR" INDICATES FEW OR NO CLOUDS BELOW 12,000 FEET WITH NO
SIGNIFICANT WEATHER AND/OR OBSTRUCTIONS TO VISIBILITY.

* THESE STATIONS ARE NOT UNDER NWS QUALITY CONTROL. THEY ALSO MAY NOT
  REPORT WEATHER SUCH AS PRECIPITATION OR FOG.

ILZ001-002-007-009-015-016-024-011300-
NORTHWEST ILLINOIS

CITY           SKY/WX    TMP DP  RH WIND       PRES   REMARKS
MOLINE         MOSUNNY   65  60  84 CALM      30.08R
6HR MIN TEMP:  63; 6HR MAX TEMP:  68; 6HR PCP:  0.21;

STERLING*      CLOUDY    61  57  88 CALM      30.09R
$$

ILZ003-004-008-010-011-017-018-011300-
NORTH CENTRAL ILLINOIS

CITY           SKY/WX    TMP DP  RH WIND       PRES   REMARKS
ROCKFORD       MOSUNNY   62  59  90 S5        30.10R
6HR MIN TEMP:  58; 6HR MAX TEMP:  62;

$$

ILZ005-006-012>014-019>023-011300-
NORTHEAST ILLINOIS

CITY           SKY/WX    TMP DP  RH WIND       PRES   REMARKS
CHICAGO-OHARE  MOSUNNY   66  59  78 SW5       30.08R
6HR MIN TEMP:  62; 6HR MAX TEMP:  68;

CHICAGO-MIDWAY PTSUNNY   69  62  78 SW5       30.07S
6HR MIN TEMP:  67; 6HR MAX TEMP:  72;

AURORA         CLOUDY    63  58  83 SW7       30.10R HAZE
6HR MIN TEMP:  57; 6HR MAX TEMP:  63;

WAUKEGAN       SUNNY     64  58  80 VRB3      30.06R
6HR MIN TEMP:  62; 6HR MAX TEMP:  66;

DUPAGE AIRPORT MOSUNNY   62  60  93 S6        30.09R FOG
6HR MIN TEMP:  57; 6HR MAX TEMP:  64;

WHEELING       SUNNY     65  59  81 S3        30.09R
6HR MIN TEMP:  61; 6HR MAX TEMP:  67;

NORTHERLY ISL    N/A     70  60  70 W6          N/A
$$

LMZ740>746-011300-
SOUTHERN LAKE MICHIGAN

STATION/POSITION SKY/WX   TEMP    WIND        PRES    VSBY  WAVE
                          AIR SEA DIR/SP/G                  HT/PER
                          (F)     (DEG/KT/KT) (MB)    (MI)  (FT/S)
SOUTHERN BUOY              64 62  240/  6/  6 1017.6R         0
WAUKEGAN HARBOR            67     280/  8/  9   N/A
HARRISON CRIB              71     250/  9/ 10   N/A
BURNHAM HARBOR             70     250/  5/  7   N/A
CALUMET HARBOR             67     220/  2/  5 1017.3R
MICHIGAN CITY              66     170/  7/  9   N/A
MICHIGAN CITY 6N           67 69  200/  6/  8   N/A           1
ST. JOSEPH                 67 69  170/  6/  8   N/A           1/ 2
$$

ILZ025>027-034>036-040-047-049-050-058-095>099-011300-
WEST-CENTRAL ILLINOIS

CITY           SKY/WX    TMP DP  RH WIND       PRES   REMARKS
QUINCY         PTCLDY    66  58  75 CALM      30.07S
GALESBURG*     PTSUNNY   63  62  94 NW10      30.10R
MACOMB*        CLEAR     60  60  99 CALM      30.10R
$$

ILZ028>032-037-038-041>044-048-051>054-059>061-011300-
CENTRAL ILLINOIS

CITY           SKY/WX    TMP DP  RH WIND       PRES   REMARKS
DECATUR        SUNNY     60  57  89 CALM      30.09S FOG
PEORIA         MOSUNNY   68  62  81 CALM      30.09R
6HR MIN TEMP:  66; 6HR MAX TEMP:  69; 6HR PCP: TRACE;

SPRINGFIELD    MOSUNNY   62  59  90 CALM      30.08F
6HR MIN TEMP:  59; 6HR MAX TEMP:  64;

TAYLORVILLE    NOT AVBL
$$

ILZ033-039-045-046-055>057-062-063-011300-
EAST-CENTRAL ILLINOIS

CITY           SKY/WX    TMP DP  RH WIND       PRES   REMARKS
CHAMPAIGN      MOSUNNY   62  60  93 SE5       30.10S FOG
MATTOON          N/A     66  62  87 SW5       30.09R
$$

ILZ079-100>102-011300-
SOUTHWEST ILLINOIS

CITY           SKY/WX    TMP DP  RH WIND       PRES   REMARKS
CAHOKIA*       CLEAR     62  61  96 CALM      30.09R FOG
SPARTA*        MOSUNNY   59  59 100 CALM      30.09S FOG
$$

ILZ064>066-069>071-074>076-080>082-084>086-088>090-092>094-011300-
SOUTH-CENTRAL ILLINOIS

CITY           SKY/WX    TMP DP  RH WIND       PRES   REMARKS
CARBONDALE     FOG       60  59  96 CALM      30.09S VSB 1/4
6HR MIN TEMP:  59; 6HR MAX TEMP:  64;

MARION         SUNNY     61  61 100 MISG      30.10S
MT. VERNON     CLOUDY    61  55  82 CALM      30.10S
SALEM*         SUNNY     62  61  98 CALM      30.10S FOG
$$

ILZ067-068-072-073-078-083-087-091-011300-
SOUTHEAST ILLINOIS

CITY           SKY/WX    TMP DP  RH WIND       PRES   REMARKS
LAWRENCEVILLE  FOG       63  62  97 CALM      30.11R VSB 1/2
HARRISBURG*    FOG       60  60 100 CALM      30.11R VSB 3/4
ROBINSON*      PTSUNNY   62  61  98 CALM      30.11S FOG
$$

ABBREVIATIONS USED IN REMARKS
   TC - TEMPERATURE IN CELSIUS
  WCI - WIND CHILL INDEX
   HX - HEAT INDEX
  VSB - VISIBILITY
$$



USA.gov is the U.S. government's official web portal to all federal, state and local government web resources and services.